COSMOS 1375 DEB

Satellite information

Favourite Embed

Satellite Type and Status

DEBRISIN ORBIT

Key statistics

Satellite COSMOS 1375 DEB at a glance.

Uptime

15675

Days in orbit

Revolutions

≈ 14.0

Per day

Orbit

LEO

Low Earth Orbit

Inclination

65.8

Latest

Satellite identification and parameters

Extended collection of information and parameters for COSMOS 1375 DEB.

Object identification

Identified? True

Debris? True

Object name: COSMOS 1375 DEB

International designator: 1982-055BQ

Object number (NORAD): 27803

Object ID (CCSDS): 27803

Country: COMMONWEALTH OF INDEPENDENT STATES (CIS)

Current information (Y/N): Y

RCS size: SMALL

Orbital parameters

Period: 102.592 minutes

Inclination: 65.8149 deg

SMA: 7259.449 km

Apoapsis: 910.143 km

Periapsis: 852.484 km

RAAN: 92.1337 deg

Eccentricy: 0.0039713

Argument of periapsis: 279.8339 deg

Mean anomaly: 101.4361 deg

Mean motion: 14.03612717 rev/day

Mean motion (dot): 0.00001897 rev/day2

B* drag term: 0.0012532 1/REarth

Two-line elements (TLE)

Creation date: May 5, 2025, 2:11 a.m.

Reference frame: TEME

Reference center: EARTH

Epoch: May 4, 2025, 9:19 p.m. UTC

TLE line 0: 0 COSMOS 1375 DEB

TLE line 1: 1 27803U 82055BQ 25124.88876064 .00001897 00000-0 12532-2 0 9991

TLE line 2: 2 27803 65.8149 92.1337 0039713 279.8339 101.4361 14.03612717734691

Live tracking on map

Real-time ground track for satellite COSMOS 1375 DEB.

In-orbit conjunctions

A list of the most updated potential collisions computed for object COSMOS 1375 DEB.

Target Orbit TCA Probability of collision Miss distance Type
METEOR 1-22 LEO 2025-03-11 11:40:16 0.0001798188 333.0 (m) PAYLOAD
FENGYUN 1C DEB SSO 2025-03-03 14:51:30 0.0001449612 222.0 (m) DEBRIS

Associated space launch

ASAT target satellite

COSMOS 1375 DEB was lifted into orbit during the mission ‘Kosmos-3M | DS-P1-M 16’, on board a Kosmos-3M space rocket.

The launch took place on June 6, 1982, 5:10 p.m. from 132/2.

For more information about the launch, click the button.

Launch to space Kosmos-3M | DS-P1-M 16
Kosmos-3M | DS-P1-M 16

Agency: N/A

Status: Launch Successful

Launch date: June 6, 1982, 5:10 p.m. UTC

Rocket: Kosmos-3M

Launch pad: 132/2

Location: Plesetsk Cosmodrome, Russian Federation

...

Latest news about this satellite

There are no fresh news available about this satellite. Check back as we update our databases every day.


Newsletter sign-up

Weekly statistics, charts and insights to help you stay on top of the space industry.